Location: Colonia Mina de C?rbuni
(46.1667°N, 22.7167°E)
Time: 09:07:21
(UTC+00:00)

Vanguard 1 - Pass Details

Date: 22 April 2024
Orbit: 652 x 3825 km, 34.2° (Epoch: 29 May)

Event Time Altitude Azimuth Distance (km) Brightness Sun altitude
Exits shadow 23:16:44 19° 152° (SSE) 6,108 13.6 -30.2°
Maximum altitude 23:21:36 21° 137° (SE) 5,901 13.7 -30.0°
Drops below altitude 10° 23:34:29 10° 98° (E) 6,192 14.2 -29.3°
Sets 23:40:26 0° 84° (E) 6,758 14.7 -29.0°
